星链-5407 (STARLINK-5407 )

导读

STARLINK-5407是美国太空探索技术公司(SpaceX)星链(Starlink)互联网卫星项目中的一颗卫星,于2022年12月28日发射入轨,属于星链低轨卫星互联网星座的组成部分,主要为全球提供高速低延迟互联网宽带服务,助力补充偏远地区网络覆盖,推进全球互联网络建设。

基本信息
目录编号:
54858
目录名称:
STARLINK-5407
国际标识:
2022-177AQ
轨道中心:
EARTH
卫星名称:
星链-5407
卫星全名:
星链-5407 (STARLINK-5407 )
卫星状态:
在轨 (已飞行1353 天)
发射日期:
2022-12-28 UTC
国别 :
美国 (US)
星等 :
--
该卫星已列入 空间交会检测服务 Space Conjunction Data Service (SCDS) ,当前飞行风险评估等级: 无高风险
轨道信息
数据来源 国际轨道数据 AOE轨道数据
星历时间 2026-09-11T09:35:23+0800
13小时前
查看轨道信息
2026-09-10T00:00:00+0800
1天前
查看轨道信息
半长轴 6861.184km 6861.191km
偏心率 0.0001007 0.0001083
轨道倾角 43.002° 43.003°
近地点辐角 264.273° 239.054°
升交点赤经 154.494° 162.402°
平近点角 95.800° 335.336°
近地点 482.356km 482.31km
远地点 483.738km 483.798km
周期 94.267分钟 94.267分钟
每日圈数 15.275809 15.275784
详细信息
固有亮度:
5
最大亮度:
2.5
卫星平台:
Starlink v1.5
覆盖范围:
全球
运营商:
太空探索技术公司
运营商所在国:
美国
制造商(研发单位):
太空探索技术公司
制造商所在国:
美国
使用方式:
暂无
卫星简介
星链(Starlink)计划是由太空探索技术公司(SpaceX)提出的一个巨型低轨卫星互联网星座项目,计划在2019年至2024年间在太空搭建由约1.2万颗卫星组成的“星链”网络,其中1584颗将部署在地球上空550千米处的近地轨道,并从2020年开始工作。该卫星仍在工作。
2D轨道图
3D轨道图
轨道高度分析图
轨道倾角分析图
轨道综合分析图
查看轨道综合分析图
交会数据列表
事件ID 空间交会对象 最接近时刻(TCA) 交会距离 交会风险概率(CRP) 交会风险指数(CRI) 操作
CDM_260913-212005-485806-378921
2026-09-13T
21:20:38+0000
0.637 km
远距离
6.135847E-5 中风险 0.71
CDM_260912-182705-485806-732821
2026-09-12T
18:27:41+0000
1.320 km
极远距离
7.961984E-6 低风险 0.53
CDM_260913-061305-485806-732821
2026-09-13T
06:13:49+0000
1.788 km
极远距离
3.046393E-6 低风险 0.45
CDM_260912-165305-485806-732821
2026-09-12T
16:53:32+0000
1.856 km
极远距离
2.749185E-6 低风险 0.44
CDM_260913-043905-485806-732821
2026-09-13T
04:39:40+0000
2.041 km
极远距离
2.150309E-6 低风险 0.42
CDM_260913-085905-485806-309221
2026-09-13T
08:59:29+0000
2.315 km
极远距离
1.59819E-6 低风险 0.39
CDM_260913-181305-485806-454221
2026-09-13T
18:13:16+0000
2.836 km
极远距离
1.346393E-6 低风险 0.38
与全量物体交会距离演化趋势
与全量物体交会风险概率演化趋势